CAPE
1124 1266 1950 2027 1764 1536 1510 1403 1623 1407 1107 883 1040 1339 679 1256 1184 916 864 963 652 532 444 440 388 473 453 259 338 714 787 524 724 520 1002 922 649 778 898 205 136 431 663
1274 1954 1947 1889 2013 1917 1622 1367 1632 1379 1166 1201 1320 1681 1070 1479 1205 1145 1279 990 1044 865 691 480 536 724 762 650 791 738 713 601 1012 1068 1007 1028 662 548 491 939 76 389 242
1201 1885 2119 1935 2039 1993 1752 1740 1609 1573 1381 1174 1333 1178 1245 1244 1291 1288 1369 1186 958 1167 943 778 870 891 916 1151 884 401 686 1097 1267 936 715 358 413 604 805 1062 678 678 980
1190 1609 1992 1992 2131 1916 1861 1995 1816 1653 1401 1376 1342 1248 1706 1485 884 1297 1240 1287 1159 987 1119 1020 1151 1134 1134 1005 334 351 566 951 492 780 0 68 317 405 617 1061 876 117 608
1111 1454 1926 2156 2016 1991 1726 1803 1755 1568 1540 1517 1492 1661 1683 1234 1059 1353 1238 1291 1312 1186 1087 1067 1036 1262 1043 940 269 768 825 790 110 294 490 0 1 1133 200 116 343 700 638
1001 1386 2087 2137 2041 1860 1681 1605 1707 1566 1521 1689 1786 1752 1555 1356 1343 1525 1033 1213 998 1182 1117 1081 1016 778 1033 410 212 317 316 554 731 804 298 475 69 659 720 1036 1026 973 952
1125 1314 1669 1722 1773 1620 1650 1596 1466 1481 1563 1529 1401 1430 1407 1350 1388 1148 1231 1050 771 1205 708 690 442 715 1095 227 43 428 346 273 336 449 328 83 511 919 760 658 539 219 694
1088 836 1112 1476 1706 2190 1902 1797 1805 1856 1587 1553 1819 1606 1429 1268 1260 1232 1304 1206 483 764 934 411 1204 1174 1027 440 333 133 40 150 738 633 432 29 281 959 1049 1112 768 34 0
1078 735 1049 1349 1636 1971 1888 1583 1268 1197 1579 1841 1697 1734 1474 1612 1508 1231 1508 1421 549 538 1102 903 1292 1091 837 156 12 0 79 316 803 268 31 0 338 1169 653 479 647 122 413
675 632 900 937 1358 1569 1748 1865 1664 1314 1279 1351 1773 1599 1469 1328 1489 1520 1522 1333 824 1010 915 994 739 586 274 7 0 5 132 449 377 607 0 0 0 604 585 1 959 646 982
798 688 1062 962 1119 1229 1390 1659 1947 1893 1426 1672 1717 1409 1890 1305 1436 1599 1258 1392 870 887 1311 853 1203 587 827 602 305 110 205 78 230 223 0 0 0 29 604 108 310 573 478
935 730 927 918 986 1132 1242 1254 1470 1894 1803 1270 1734 1689 1545 928 1393 1209 1404 1240 1306 498 1132 1414 1101 1144 884 357 236 219 89 7 299 168 0 16 0 0 0 50 464 669 793
994 986 988 737 858 1118 1226 1122 1191 1503 1380 1313 1356 1342 1142 1118 1088 1375 1296 1411 1544 1036 584 1361 1400 1095 630 224 95 23 26 22 134 1 1 18 0 0 24 102 624 1010 662
1051 1074 1129 1027 1021 989 1300 1138 733 1171 1136 1034 1304 1062 1078 915 804 919 807 1014 1118 1162 144 864 1005 859 451 348 393 165 22 52 50 42 13 55 186 516 597 588 488 537 671
956 1198 1285 1393 1124 1100 1440 1119 751 972 1182 1307 1262 997 1154 772 338 749 853 997 923 1022 575 71 212 175 103 268 230 69 74 92 295 191 39 191 387 434 558 454 443 489 494
579 981 1456 1428 1304 1084 1376 1247 957 1001 1178 1392 1187 883 952 871 734 718 1003 909 989 917 560 386 3 37 1 0 56 42 47 112 137 388 81 355 548 340 623 695 658 781 844
751 756 1514 1506 1358 1083 1200 1485 1204 1041 1321 122 1133 1335 1000 1003 1095 1049 894 811 782 910 626 515 236 361 545 209 19 0 0 17 32 137 513 305 521 383 506 485 486 740 819
875 773 1672 1619 1350 1131 882 1763 1392 1498 1062 321 650 590 348 435 1259 1186 836 855 824 769 542 430 344 333 419 576 289 6 0 0 0 33 200 723 520 535 549 364 455 318 331
996 854 1347 1730 1424 1190 1288 1407 1431 1178 1294 851 634 233 32 47 1330 989 942 858 647 525 359 345 246 57 207 293 338 185 114 0 0 37 0 84 683 592 647 564 421 350 267
1124 1000 1216 1344 1558 1539 1447 1412 1340 1239 997 1094 1133 818 553 667 1284 990 1028 791 564 295 310 315 336 287 225 127 367 394 322 252 98 107 53 98 111 445 686 821 667 451 379
1266 1134 1178 1346 1466 1326 1479 1453 1217 1140 862 932 876 926 987 1015 1052 968 695 773 638 274 60 248 235 98 76 359 361 306 447 440 321 269 235 446 231 125 350 670 824 663 495
1340 1285 1281 1339 1565 1486 1558 1468 1410 907 1144 834 816 979 973 977 1239 1086 860 912 687 354 20 128 488 330 184 164 94 200 161 154 184 287 420 314 288 268 269 588 830 629 491
1497 1476 1488 1463 1702 1764 1666 1577 1515 1394 983 1080 822 778 1352 1026 992 916 922 981 984 594 207 324 534 460 282 241 203 93 65 19 50 37 145 337 231 241 247 622 964 904 913
1558 1734 1685 1723 1898 1922 1761 1690 1333 1527 1104 1085 817 781 1301 1380 1135 965 1051 954 966 749 557 537 538 359 416 280 290 396 192 179 84 46 243 243 228 152 149 321 818 745 777
1698 1885 1837 1944 2019 2084 1828 1831 1513 1263 1368 1008 805 662 1338 1433 1351 1463 1228 1154 817 598 594 385 445 495 366 241 159 105 267 290 221 301 141 67 240 556 455 470 289 523 773
1659 2046 2037 1963 1985 2266 1991 1921 1685 1398 1490 1136 987 630 1081 1446 1497 1609 1486 1226 712 316 232 153 293 465 556 460 317 220 122 143 137 124 71 1 45 234 461 724 645 719 776
CIN
-62 -95 -14 -11 -25 -15 -21 -17 0 -3 -16 -29 -27 -23 -42 -16 -10 -16 -12 -1 -6 -9 -11 -12 -12 -7 -12 -19 -29 -16 -18 -23 -16 -8 -5 -2 -5 -2 -1 -23 -49 -7 0
-87 -38 -7 -11 -1 -6 -18 -24 -2 -9 -22 -12 -8 0 -20 0 -5 -2 -1 0 0 -2 -6 -11 -10 -5 -8 -12 -17 -18 -20 -24 -11 -13 -10 -2 -5 -5 -4 0 -39 -8 -12
-108 -25 0 -5 -4 -2 -8 -4 -5 -1 -2 -15 -4 -14 -2 -3 -1 -1 0 0 0 0 0 -1 0 -3 -1 0 -17 -34 -18 -8 -1 -10 -18 -32 -13 -3 0 0 -4 -3 0
-133 -49 -2 -2 -2 -17 -7 0 0 0 0 0 -1 -3 0 0 -8 0 0 0 0 0 0 0 0 0 0 -3 -41 -38 -27 -10 -8 -2 0 -59 -28 -11 -4 0 0 -36 -2
-118 -49 -4 -1 -3 -9 -20 -8 -1 -1 0 0 0 0 0 0 0 0 0 0 0 0 0 0 0 0 0 -13 -46 -29 -18 -10 -17 -9 -4 0 -10 0 -30 -67 -18 -1 0
-125 -74 -7 -2 -2 -6 -7 -4 -2 -1 -1 0 0 0 0 0 0 0 0 0 0 0 0 0 0 0 0 -32 -52 -54 -49 -31 -23 -11 -28 -31 -90 -21 -2 0 0 0 0
-120 -97 -66 -41 -30 -34 -16 -6 -4 -4 -2 0 0 0 0 0 0 0 0 0 0 0 -1 -1 -2 0 0 -43 -14 -50 -47 -47 -32 -20 -37 -61 -52 -23 -4 -3 -12 -43 -5
-184 -181 -123 -69 -36 -2 -11 -3 -1 0 0 0 0 0 0 0 0 0 0 0 -12 -3 0 -11 0 0 -2 -34 -54 -70 -69 -56 -20 -10 -55 -43 -63 -25 -2 0 -8 -71 0
-152 -219 -175 -105 -35 -4 -4 -19 -40 -30 -1 0 0 0 -1 0 0 0 0 0 -14 -11 0 0 0 0 -9 -70 -29 0 -83 -57 -27 -42 -44 0 -76 -24 -32 -28 -9 -78 -25
-191 -209 -194 -172 -99 -47 -17 -5 -8 -28 -22 -7 0 0 0 0 0 0 -1 0 -2 0 -2 0 -1 -30 -59 -4 0 -4 -81 -65 -27 -29 0 0 0 -69 -47 -5 -1 -6 0
-180 -213 -170 -176 -141 -91 -55 -17 -1 0 -15 0 0 0 0 -4 -1 0 -4 -1 -4 -1 0 -1 0 -38 -31 -52 -68 -82 -80 -73 -47 -40 0 0 0 -26 -70 -86 -52 -14 -16
-204 -227 -187 -152 -149 -107 -74 -68 -40 -5 -7 -38 -2 -3 -4 -27 -6 -14 -5 -4 0 -16 0 0 -1 -7 -33 -78 -84 -84 -90 -64 -43 -48 0 -111 0 0 0 -131 -50 -16 -2
-238 -220 -176 -173 -144 -123 -96 -112 -91 -51 -48 -34 -27 -23 -27 -26 -8 -5 -7 -5 0 -8 -36 0 0 -8 -57 -91 -97 -101 -98 -82 -76 -16 -16 -122 0 0 -112 -111 -56 -10 -22
-265 -246 -213 -162 -159 -140 -96 -97 -132 -66 -66 -67 -45 -48 -55 -55 -56 -35 -33 -31 -24 -12 -106 -27 -18 -36 -68 -71 -70 -58 -72 -107 -56 -68 -97 -136 -113 -86 -88 -87 -82 -62 -41
-206 -218 -207 -173 -169 -146 -98 -99 -135 -100 -62 -52 -40 -57 -54 -73 -113 -65 -35 -38 -49 -25 -47 -133 -89 -79 -83 -66 -52 -61 -75 -64 -20 -37 -129 -84 -86 -76 -79 -84 -87 -73 -67
-212 -222 -209 -202 -203 -195 -111 -94 -102 -57 -75 -63 -64 -60 -62 -60 -58 -57 -40 -39 -37 -29 -37 -47 -96 -101 -49 0 -64 -57 -60 -42 -21 -34 -78 -82 -71 -73 -75 -69 -71 -62 -53
-246 -235 -221 -202 -178 -197 -163 -78 -74 -57 -36 -214 -22 -22 -29 -36 -32 -38 -45 -52 -39 -31 -28 -28 -27 -20 -18 -30 -55 -4 0 -39 -70 -28 -34 -54 -63 -68 -70 -64 -53 -60 -59
-270 -281 -217 -219 -220 -199 -181 -39 -40 -12 -68 -163 -97 -72 -90 -93 -11 -9 -27 -25 -21 -29 -34 -20 -23 -22 -18 -20 -15 -22 0 0 0 -68 -35 -24 -53 -60 -55 -50 -60 -61 -71
-316 -321 -278 -228 -241 -224 -150 -83 -52 -42 -28 -80 -125 -150 -70 -164 -17 -25 -23 -24 -40 -39 -52 -28 -35 -53 -33 -24 -24 -26 -37 0 0 -36 0 -35 -26 -34 -47 -47 -40 -52 -49
-387 -361 -334 -316 -264 -234 -174 -117 -86 -60 -75 -48 -65 -107 -97 -53 -18 -19 -23 -37 -53 -62 -64 -48 -32 -40 -47 -43 -25 -21 -29 -41 -46 -43 -36 -23 -30 -23 -27 -35 -47 -46 -58
-379 -405 -393 -370 -326 -295 -241 -193 -175 -149 -128 -72 -50 -54 -62 -57 -39 -36 -44 -49 -57 -62 -68 -55 -57 -44 -47 -34 -19 -26 -23 -31 -24 -37 -37 -25 -20 -35 -22 -26 -37 -51 -54
-382 -443 -431 -419 -394 -349 -281 -250 -199 -225 -146 -136 -85 -45 -57 -60 -39 -40 -48 -46 -70 -83 -158 -92 -22 -15 -35 -49 -43 -35 -22 -32 -36 -33 -36 -29 -26 -20 -29 -21 -33 -46 -53
-354 -455 -445 -446 -422 -371 -304 -248 -187 -143 -171 -135 -140 -109 -42 -59 -61 -65 -62 -53 -46 -57 -81 -56 -45 -18 -25 -30 -33 -36 -25 -65 -42 -43 -42 -39 -45 -33 -29 -29 -36 -32 -41
-313 -454 -460 -454 -429 -381 -317 -258 -261 -185 -232 -214 -187 -137 -59 -52 -71 -72 -59 -59 -50 -39 -45 -31 -20 -38 -45 -31 -33 -20 -33 -23 -21 -44 -42 -53 -49 -40 -33 -49 -34 -34 -31
-324 -422 -475 -432 -407 -376 -343 -259 -233 -216 -166 -199 -189 -157 -61 -44 -55 -58 -63 -55 -29 -25 -18 -18 -21 -25 -33 -57 -37 -34 -29 -30 -24 -16 -23 -26 -59 -33 -40 -47 -45 -35 -26
-316 -413 -463 -428 -418 -361 -339 -251 -219 -208 -159 -170 -165 -164 -89 -47 -45 -41 -44 -39 -63 -79 -79 -82 -62 -24 -28 -37 -44 -43 -51 -45 -46 -30 -25 -4 -23 -26 -31 -53 -37 -42 -48
Wind_Speed
27 30 32 30 30 30 30 31 10 9 11 11 8 6 3 5 4 4 7 8 6 11 15 12 16 16 13 14 14 16 15 17 24 25 19 21 20 25 32 32 32 32 32
30 31 31 30 30 30 30 31 31 10 9 13 11 7 3 7 6 6 10 11 16 18 17 20 17 16 16 16 15 18 19 17 17 26 30 6 12 15 31 31 32 31 31
32 31 30 30 29 27 29 31 29 30 24 4 16 8 10 8 6 8 13 13 8 15 20 19 16 16 18 17 19 21 20 21 25 30 31 12 8 9 28 30 30 29 30
31 31 29 28 27 26 26 24 25 26 30 12 11 6 12 12 8 11 11 8 9 1 13 16 14 13 14 20 21 22 24 23 26 29 14 27 16 1 25 28 28 27 28
29 28 29 27 23 22 22 23 15 6 1 6 13 14 17 11 10 14 8 7 3 3 12 12 12 11 13 19 23 24 23 23 23 23 19 23 17 13 17 26 26 26 26
30 27 28 25 23 19 20 21 22 18 14 6 15 14 13 11 11 6 3 8 8 3 10 15 13 14 14 18 23 23 22 20 19 17 9 20 18 18 20 20 22 22 24
29 27 27 25 22 18 18 19 17 16 14 11 11 17 22 19 3 2 5 3 8 7 7 11 8 13 13 17 22 21 18 17 15 12 19 16 17 16 16 20 21 21 23
31 28 26 25 24 23 19 20 16 18 21 18 6 4 7 7 13 12 6 4 4 6 10 2 8 3 7 22 23 23 19 15 12 17 16 16 18 17 16 20 21 21 22
30 28 24 23 23 24 22 17 12 18 11 12 9 2 4 3 14 16 16 8 3 2 9 3 2 3 13 24 25 23 19 18 13 5 12 17 19 17 17 19 20 20 21
28 27 24 21 21 21 23 23 22 9 10 8 4 3 3 9 6 4 8 14 8 3 6 3 5 3 2 25 24 22 20 17 15 18 21 19 18 16 17 18 19 19 19
25 25 25 23 20 21 23 25 24 15 3 4 4 7 3 3 4 4 5 5 5 7 5 3 2 2 10 24 24 23 21 19 18 9 17 18 17 16 16 17 18 18 18
25 25 24 24 21 21 23 26 25 27 3 3 4 7 4 3 5 4 5 6 6 8 5 3 6 2 17 24 23 24 24 22 21 13 15 17 15 16 15 16 16 16 17
25 25 25 26 25 26 24 24 24 25 22 13 4 2 21 14 3 4 3 4 4 5 6 3 2 3 5 23 23 25 25 23 20 10 15 16 16 16 15 15 15 16 16
25 25 26 27 28 28 26 25 23 22 21 19 20 12 3 3 13 13 6 4 5 5 3 2 2 5 25 24 26 26 26 22 17 5 12 15 17 16 14 14 14 13 14
22 25 26 27 27 28 27 27 24 23 17 14 16 15 4 5 1 5 4 2 4 3 2 5 6 9 10 31 30 27 28 23 8 8 7 15 16 14 13 13 13 13 13
21 23 25 26 27 27 26 25 24 22 19 15 16 17 15 13 1 3 1 1 1 3 0 4 2 11 25 31 30 22 14 16 10 6 5 6 14 11 13 12 11 11 11
22 22 23 25 25 25 25 25 24 22 20 21 23 19 12 10 4 7 2 1 1 1 1 3 5 13 23 26 30 9 17 19 17 11 6 3 7 9 10 9 8 8 8
21 23 21 22 24 24 23 22 24 22 22 24 26 22 23 28 14 1 3 2 5 5 4 6 6 9 16 21 16 13 16 20 23 23 12 3 1 3 3 5 7 7 7
20 21 19 20 22 22 22 22 21 23 21 22 22 24 22 26 20 9 4 7 10 10 7 9 13 10 6 17 22 18 14 11 18 19 27 12 3 4 5 4 4 3 4
19 20 18 17 18 20 20 19 18 20 21 20 20 19 21 23 20 17 15 8 4 5 5 15 16 14 14 11 23 24 21 12 13 10 10 18 14 8 7 6 3 2 5
17 18 20 17 19 19 19 20 20 22 22 21 20 19 19 19 18 16 16 13 7 3 1 19 20 16 16 19 20 25 27 24 16 15 16 15 8 8 9 6 8 4 3
20 19 18 19 18 18 18 20 19 21 20 20 21 18 17 18 18 16 12 11 12 7 1 8 16 19 17 11 18 22 25 28 28 27 24 21 15 10 13 12 6 5 3
20 21 19 21 20 19 17 17 15 16 18 18 19 19 16 16 18 16 13 8 8 7 3 7 6 6 13 17 14 18 21 26 25 25 28 28 22 15 15 11 7 6 5
23 22 20 20 19 19 19 19 20 16 17 18 16 15 16 15 16 16 13 10 7 5 5 12 10 10 10 14 17 14 20 20 20 23 22 24 24 18 15 13 10 8 7
22 24 21 19 19 19 19 17 17 17 14 13 15 15 14 15 16 15 11 9 7 7 17 30 22 14 10 13 11 16 16 22 25 26 28 25 22 22 17 14 11 10 8
24 22 20 21 21 19 19 18 17 17 14 15 13 15 13 14 14 14 12 9 6 3 4 26 35 9 12 11 10 10 13 18 19 23 26 28 27 23 21 14 11 10 9
Wind_Direction
123 128 136 136 137 135 134 125 86 198 194 186 184 177 152 172 167 165 181 187 189 193 188 194 186 186 193 189 190 186 188 178 152 112 154 152 152 141 115 102 101 101 99
123 126 127 129 131 128 125 124 125 81 201 189 190 193 187 193 193 197 195 198 191 187 191 182 191 193 190 189 188 182 177 179 174 124 96 49 171 163 119 103 98 97 96
124 125 125 124 125 116 123 130 124 126 105 171 189 203 200 206 211 211 196 200 214 197 188 191 197 197 192 191 179 173 173 169 156 134 110 50 180 42 86 94 98 92 92
121 125 124 121 118 113 111 113 113 120 148 122 206 218 206 207 217 211 210 216 215 301 207 200 203 205 201 182 178 171 164 165 155 144 155 113 52 225 79 91 93 86 91
119 122 124 119 110 105 104 106 97 80 90 225 211 206 200 213 218 204 223 225 248 256 211 212 212 217 207 189 175 171 170 168 163 164 177 92 57 46 57 89 89 85 95
122 121 123 117 110 102 102 105 109 100 94 233 213 214 216 218 219 238 264 229 234 2 223 210 216 215 212 198 183 182 180 179 180 189 110 81 64 64 72 69 75 75 85
118 120 123 120 112 103 101 101 100 95 92 116 227 211 197 202 271 347 34 283 241 247 245 227 242 217 219 204 192 194 199 199 200 216 90 64 67 64 63 78 82 81 90
119 119 122 121 119 116 108 108 97 103 112 106 81 248 242 106 89 82 50 17 283 255 233 344 240 275 246 193 195 192 201 216 234 181 76 70 81 73 73 87 95 87 96
120 120 120 121 122 124 119 107 95 107 89 87 81 320 272 298 92 102 98 63 347 326 245 13 345 285 230 192 191 197 206 205 224 2 62 81 88 84 85 95 103 97 103
119 123 122 122 123 125 129 126 124 91 90 86 57 40 290 252 264 29 71 91 59 356 63 337 275 311 316 191 196 206 211 216 225 198 125 97 94 86 92 96 102 103 102
121 123 128 129 127 129 133 139 134 112 74 73 61 80 6 331 289 304 48 45 28 65 60 25 340 359 243 200 204 211 214 220 221 262 109 109 95 95 98 105 109 111 112
122 128 127 130 130 132 137 145 142 151 73 287 285 87 53 39 64 47 288 71 60 74 59 42 80 45 237 212 219 211 206 208 222 256 122 118 97 98 97 104 108 107 117
126 126 128 129 136 143 142 143 147 151 139 127 99 67 140 254 349 311 6 43 20 60 71 28 48 309 282 230 227 210 196 201 227 79 115 119 110 107 103 105 113 126 125
133 131 132 134 139 144 146 146 147 149 147 140 143 127 122 312 264 266 93 20 50 329 353 51 328 285 234 236 221 218 205 240 263 45 111 124 125 119 112 113 113 115 125
133 136 138 137 137 143 144 151 152 150 138 136 142 141 140 137 255 113 104 59 21 38 1 118 123 137 248 214 215 238 213 250 332 350 111 137 135 123 120 116 120 124 129
147 135 140 142 142 140 144 147 146 137 142 141 155 155 152 144 227 134 257 53 33 108 93 277 226 144 180 203 207 262 283 286 312 5 90 103 145 123 134 126 122 129 133
152 147 144 146 147 145 143 148 142 142 130 155 163 165 154 150 160 150 178 181 136 184 290 266 206 273 262 251 207 286 281 279 281 306 334 104 134 143 139 133 127 129 132
153 155 145 146 151 150 147 141 143 127 139 157 170 157 161 176 148 118 137 139 305 298 286 272 243 268 272 267 280 280 288 278 275 271 299 307 299 333 141 140 143 142 139
158 158 152 150 153 152 150 147 143 148 136 146 155 164 158 166 157 134 106 312 304 307 298 275 269 263 261 274 271 280 287 293 286 284 268 293 278 303 317 170 167 149 142
163 163 161 158 154 151 151 150 150 156 158 149 145 150 156 163 158 158 155 145 333 317 315 273 266 271 275 273 270 272 280 289 289 291 291 283 294 292 286 297 295 259 171
172 168 170 166 163 159 157 158 159 164 164 164 159 150 153 161 163 159 162 159 147 104 262 268 263 271 273 272 278 276 275 281 282 285 290 291 279 281 292 280 296 278 281
182 179 175 175 170 167 162 162 159 163 163 165 168 163 161 162 162 163 160 162 167 156 247 284 270 270 276 276 276 280 280 276 276 276 280 287 286 271 287 285 268 255 253
196 188 181 179 175 171 166 160 154 154 164 165 170 173 161 164 168 168 167 164 170 173 202 277 269 247 276 277 280 283 286 282 285 284 277 279 285 281 282 282 267 259 281
209 195 188 183 181 176 171 168 169 165 164 165 162 162 164 161 169 171 173 173 187 220 231 276 272 272 272 279 285 281 284 294 296 293 292 283 281 281 277 274 269 273 286
212 199 193 190 188 182 179 177 173 173 169 162 160 160 160 165 167 172 172 172 179 183 285 266 274 275 263 276 275 286 287 286 287 288 288 292 293 281 280 277 265 264 275
212 209 202 196 193 190 185 183 182 178 172 171 165 167 162 164 168 173 174 170 170 196 248 273 230 225 277 274 272 271 280 291 289 289 290 288 289 287 281 280 276 282 295